Showing default

THEMIS D, 30797

Orbit data source: Space-Track

THEMIS D, 30797 is a payload satellite owned by GSFC (US) in HEO that was launched on Sat, 17 Feb 2007 UTC via a DELTA 7925-10C launch vehicle from the Air Force Eastern Test Range (AFETR). Payload-class satellites include a variety of spacecraft equipped with specific instruments for various scientific and technological missions. These include communications satellites like Starlink; space stations such as the ISS; scientific satellites like the Hubble; Earth observation satellites from companies like Planet Labs, Umbra, and HawkEye 360; GPS; miniature CubeSats for education and research; and military/defense satellites.

Loading next visibility...
Identifier
30797, 2007-004D
Orbit
HEO
Country
Flag of USUS
Related business
Manufacturer
Swales
Mission
Operational Civil Science
Bus & Motor
ATK-A100, Unknown motor
Mass
125 kg wet, 76 kg dry
Launch date (UTC)
2007-02-17 (19 years ago)
Launch vehicle
DELTA 7925-10C
Launch site
Air Force Eastern Test Range (AFETR)
Object type
Payload
Rocket body
Debris
Shape & HBR
Box + 6 Rod, 24.5 m
Radar Cross Section
0.720 m², Medium (>0.1 m² and < 1m²)

Expand to show TLE details & history
Last TLE update: 11 hours ago

TLE from 11 hours ago
0 THEMIS D
1 30797U 07004D   26102.12526808  .00000049  00000-0  00000-0 0  9993
2 30797   7.0669  83.1456 8343210 221.3444 319.6741  0.87834203 40497
Epoch: 2026-04-12T03:00Z
TLE epoch observation values (Epoch: 2026-04-12T03:00:23.162Z)
Latitude
6.83264°
Longitude
-86.33075°
Altitude
38,521.754 km
Speed
3.017 km/s
True Right ascension
10h 36m 24s
True Declination
6° 49' 34"
Sunlit
Object was in daylight at epoch
Visualization orbit readout
Latitude
Unknown
Longitude
Unknown
Altitude
Unknown
Speed
Unknown
Apparent Right ascension
Unknown
Apparent Declination
Unknown
Sunlit
N/A
Visualization observer readout
Local Sidereal Time
20:01:46
Azimuth
Unknown
Elevation
Unknown
Doppler factor
Unknown
Orbital elements
Apogee altitude
78,114.903 km
Perigee altitude
1,253.418 km
Semi-major axis
46,062.298 km
Eccentricity
0.83432
Inclination
7.0669°
RAAN
83.1456°
Arg. of periapsis
221.3444°
True anomaly
214.51542°
Mean anomaly
319.6741°
Eccentric anomaly
271.89723°
Mean motion
0.21955 °/min
Orbital period
1,639.75 mins
BSTAR
0
Loading maneuver chart data...
Computing Atmospheric mass density...
Loading historical data...
Loading historical data...
Loading historical data...
Loading historical data...
Loading historical data...
Loading historical data...
Loading historical data...

Documentation

Showing up to 5 results
|